[[{"header":{"parameterUnit":"m.s-1","parameterCategory":1,"la1":30.2992,"la2":30.254,"lo1":-89.0895,"lo2":-89.0443,"dy":0.0025,"dx":0.0025,"nx":19,"ny":19,"refTime":"2026-03-26T09:00:00:Z","depth":0,"parameterNumber":2,"parameterNumberName":"U-component_of_WINDS"},"data":[0,0,0,2.8022,2.8025,2.8209,2.8209,2.8437,2.8439,0,0,0,0,0,0,0,0,0,0,0,2.7959,2.796,2.8021,2.8026,2.8209,2.821,2.8437,2.8439,0,0,0,0,0,0,0,0,0,0,0,2.7959,2.796,2.7962,2.8026,2.8208,2.821,2.8436,2.8301,0,0,0,0,0,0,0,0,0,0,2.8125,2.8058,2.796,2.7962,2.8027,2.8208,2.821,2.8295,2.831,2.835,0,2.838,0,2.8413,2.8453,2.8454,0,0,0,2.8032,2.8046,2.8102,2.7962,2.8029,2.8208,2.8128,2.8303,2.832,2.8369,2.8384,2.8393,2.8417,2.8455,2.8456,2.8661,2.8662,0,0,2.8022,2.7988,2.8091,2.8113,2.808,2.8122,2.8133,2.8313,2.8328,2.8385,2.8398,2.8421,2.8456,2.8458,2.8661,2.8661,0,0,0,2.7988,2.7981,2.8033,2.8103,2.8137,2.8127,2.814,2.832,2.834,2.8401,2.8423,2.8457,2.846,2.866,2.8661,2.8659,0,0,0,2.7983,2.7961,2.8029,2.801,2.8133,2.823,2.8143,2.8327,2.8349,2.8422,2.8457,2.8462,2.8659,2.866,2.8658,2.8663,0,0,0,2.795,2.7958,2.7981,2.8008,2.8085,2.8228,2.8258,2.8333,2.8362,2.8454,2.8463,2.8659,2.866,2.8656,2.8661,2.8708,0,0,0,2.7906,2.7977,2.7981,2.807,2.8083,2.8225,2.8257,2.8365,2.8443,2.8459,2.8659,2.8661,2.8656,2.866,2.8706,2.8739,2.875,0,0,2.7977,2.7984,2.804,2.8049,2.818,2.82,2.8333,2.8438,2.8479,2.8599,2.8605,2.8658,2.8661,2.8707,2.8825,2.8833,0,0,0,2.8051,2.809,2.8133,2.8205,2.8287,2.8358,2.8446,2.8487,2.859,2.8533,2.8689,2.8692,2.8721,2.8738,2.8745,2.8772,2.8668,2.8667,2.8667,2.81,2.8149,2.8245,2.8317,2.8388,2.848,2.8543,2.8614,2.8642,2.8679,2.8713,2.8779,2.8798,2.8803,2.8831,2.8736,2.8736,2.8736,2.8737,2.8208,2.8271,2.831,2.8416,2.847,2.8561,2.8655,2.8673,2.8768,2.8755,2.8783,2.8763,2.8811,2.8838,2.8737,2.8737,2.8737,2.8737,2.8737,2.8244,2.8283,2.8331,2.8444,2.8527,2.86,2.869,2.8736,2.878,2.8808,2.885,2.8851,2.8856,2.8825,2.8826,2.8826,2.8826,2.8826,2.8826,2.8262,2.8316,2.8384,2.8481,2.8536,2.8614,2.8712,2.8769,2.8844,2.887,2.8871,2.8896,2.8807,2.8782,2.883,2.8829,2.8829,2.8828,2.8828,2.8349,2.8338,2.8442,2.8498,2.8617,2.8698,2.8758,2.887,2.8924,2.8968,2.899,2.8917,2.8927,2.8922,2.8902,2.8979,2.8979,2.8979,2.8979,2.8378,2.8389,2.8509,2.8595,2.8685,2.8751,2.8873,2.8952,2.9033,2.907,2.9067,2.9046,2.9038,2.9054,2.9046,2.9028,2.9134,2.9135,2.9135,2.8435,2.8457,2.8549,2.8626,2.8725,2.8809,2.8926,2.9027,2.9117,2.9142,2.9101,2.9095,2.906,2.9047,2.9066,2.9052,2.902,0,0]},{"header":{"parameterUnit":"m.s-1","parameterCategory":1,"la1":30.2992,"la2":30.254,"lo1":-89.0895,"lo2":-89.0443,"dy":0.0025,"dx":0.0025,"nx":19,"ny":19,"refTime":"2026-03-26T09:00:00:Z","depth":0,"parameterNumber":3,"parameterNumberName":"V-component_of_WINDS"},"data":[0,0,0,-0.221,-0.2204,-0.1908,-0.1907,-0.1535,-0.1532,0,0,0,0,0,0,0,0,0,0,0,-0.2303,-0.2301,-0.221,-0.2203,-0.1908,-0.1907,-0.1536,-0.1532,0,0,0,0,0,0,0,0,0,0,0,-0.2304,-0.2302,-0.2299,-0.2202,-0.1908,-0.1907,-0.1536,-0.1756,0,0,0,0,0,0,0,0,0,0,-0.2041,-0.2134,-0.2302,-0.2299,-0.22,-0.1909,-0.1907,-0.1767,-0.1742,-0.1672,0,-0.1614,0,-0.1568,-0.1508,-0.1506,0,0,0,-0.2197,-0.2155,-0.207,-0.2298,-0.2198,-0.1909,-0.2039,-0.1753,-0.1726,-0.164,-0.1609,-0.1595,-0.1561,-0.1505,-0.1503,-0.1127,-0.1125,0,0,-0.2213,-0.2252,-0.2089,-0.2053,-0.2103,-0.2049,-0.203,-0.1736,-0.1703,-0.1607,-0.1586,-0.1555,-0.1503,-0.15,-0.1128,-0.1126,0,0,0,-0.2264,-0.2264,-0.2186,-0.2069,-0.2015,-0.2041,-0.2019,-0.1716,-0.1688,-0.1582,-0.1551,-0.1501,-0.1496,-0.113,-0.1127,-0.1093,0,0,0,-0.2274,-0.2293,-0.2194,-0.2214,-0.2021,-0.1862,-0.2006,-0.1708,-0.1674,-0.1553,-0.1501,-0.1493,-0.1131,-0.1128,-0.1097,-0.1068,0,0,0,-0.232,-0.2299,-0.2259,-0.2217,-0.2092,-0.1866,-0.1821,-0.17,-0.1655,-0.1506,-0.1492,-0.1132,-0.1129,-0.1101,-0.1075,-0.0981,0,0,0,-0.238,-0.2229,-0.2259,-0.2079,-0.2095,-0.1849,-0.1823,-0.1636,-0.1504,-0.1499,-0.1131,-0.1128,-0.1102,-0.1078,-0.0986,-0.0908,-0.088,0,0,-0.2211,-0.221,-0.2101,-0.212,-0.1879,-0.1891,-0.1644,-0.1484,-0.1432,-0.1231,-0.1221,-0.1096,-0.1075,-0.0982,-0.0714,-0.0692,0,0,0,-0.2061,-0.1983,-0.1911,-0.179,-0.1668,-0.156,-0.1435,-0.1377,-0.1205,-0.1338,-0.1036,-0.1023,-0.0966,-0.0927,-0.0908,-0.0857,-0.1112,-0.1112,-0.1113,-0.1875,-0.1822,-0.1638,-0.155,-0.1433,-0.1309,-0.1208,-0.1107,-0.1083,-0.1014,-0.0952,-0.0796,-0.0752,-0.0738,-0.0685,-0.0909,-0.0909,-0.0908,-0.0908,-0.1622,-0.1503,-0.1482,-0.1296,-0.124,-0.1082,-0.0957,-0.0947,-0.079,-0.0837,-0.0785,-0.0839,-0.0716,-0.0667,-0.0905,-0.0906,-0.0906,-0.0906,-0.0907,-0.1492,-0.1426,-0.1361,-0.1183,-0.1051,-0.0967,-0.082,-0.0773,-0.0727,-0.0676,-0.0606,-0.0607,-0.06,-0.0647,-0.0647,-0.0646,-0.0645,-0.0645,-0.0645,-0.1382,-0.131,-0.1193,-0.1055,-0.0973,-0.0859,-0.0736,-0.0652,-0.0547,-0.0525,-0.0524,-0.0507,-0.0716,-0.0768,-0.0636,-0.0637,-0.0639,-0.0639,-0.064,-0.1141,-0.1189,-0.1009,-0.0927,-0.0762,-0.0635,-0.058,-0.0415,-0.034,-0.0269,-0.0265,-0.0428,-0.0421,-0.0435,-0.0478,-0.0279,-0.0279,-0.0278,-0.0278,-0.103,-0.1025,-0.0831,-0.0704,-0.0574,-0.0508,-0.0303,-0.0208,-0.0115,-0.0064,-0.0088,-0.0141,-0.0158,-0.0141,-0.0162,-0.0201,0.0064,0.0065,0.0065,-0.0878,-0.0859,-0.0695,-0.0609,-0.0478,-0.0366,-0.0173,-0.0025,0.007,0.008,-0.0024,-0.0038,-0.0125,-0.0156,-0.0144,-0.0177,-0.0247,0,0]}]]